| time (UTC) | temp F | wind direction | speed knots | gust knots | rain 1hr in | rain 24hr in | rain mn in | humidity % | barometer mb |
| 20260506103035 | 60 | 210 | 1.7 | 4.3 | 0.00 | 0.00 | 0.00 | 87 | 1008.9 |
| 20260506101533 | 60 | 208 | 0.9 | 4.3 | 0.00 | 0.00 | 0.00 | 87 | 1008.7 |
| 20260506100033 | 60 | 172 | 2.6 | 5.2 | 0.00 | 0.00 | 0.00 | 87 | 1008.8 |
| 20260506094535 | 60 | 210 | 1.7 | 5.2 | 0.00 | 0.00 | 0.00 | 86 | 1008.7 |
| 20260506093041 | 60 | 205 | 2.6 | 4.3 | 0.00 | 0.00 | 0.00 | 86 | 1008.7 |
| 20260506091527 | 60 | 221 | 1.7 | 4.3 | 0.00 | 0.00 | 0.00 | 86 | 1008.8 |
| 20260506090025 | 60 | 203 | 2.6 | 6.1 | 0.00 | 0.00 | 0.00 | 85 | 1008.8 |
| 20260506084522 | 60 | 195 | 2.6 | 5.2 | 0.00 | 0.00 | 0.00 | 84 | 1008.8 |
| 20260506083020 | 61 | 217 | 1.7 | 3.5 | 0.00 | 0.00 | 0.00 | 83 | 1009.0 |
| 20260506081518 | 61 | 185 | 2.6 | 4.3 | 0.00 | 0.00 | 0.00 | 81 | 1009.0 |
| 20260506073013 | 62 | 211 | 2.6 | 5.2 | 0.00 | 0.00 | 0.00 | 76 | 1009.1 |
| 20260506071510 | 63 | 192 | 1.7 | 5.2 | 0.00 | 0.00 | 0.00 | 75 | 1009.2 |
| 20260506061503 | 64 | 214 | 2.6 | 6.1 | 0.00 | 0.00 | 0.00 | 71 | 1009.6 |
| 20260506050103 | 64 | 211 | 2.6 | 6.1 | 0.00 | 0.00 | 0.00 | 71 | 1010.0 |
| 20260506044559 | 64 | 207 | 2.6 | 5.2 | 0.00 | 0.00 | 0.00 | 71 | 1010.3 |
| 20260506043051 | 64 | 181 | 2.6 | 6.1 | 0.00 | 0.00 | 0.00 | 70 | 1010.2 |
| 20260506041553 | 64 | 226 | 3.5 | 7.0 | 0.00 | 0.00 | 0.00 | 70 | 1010.2 |
| 20260506040047 | 65 | 209 | 2.6 | 7.8 | 0.00 | 0.00 | 0.00 | 70 | 1010.3 |
| 20260506034546 | 65 | 238 | 1.7 | 6.1 | 0.00 | 0.00 | 0.00 | 69 | 1010.2 |
| 20260506033045 | 65 | 205 | 2.6 | 7.0 | 0.00 | 0.00 | 0.00 | 68 | 1010.1 |
| 20260506031556 | 66 | 209 | 2.6 | 5.2 | 0.00 | 0.00 | 0.00 | 66 | 1010.2 |
| 20260506030058 | 66 | 207 | 2.6 | 6.1 | 0.00 | 0.00 | 0.00 | 63 | 1010.0 |
| 20260506024544 | 67 | 174 | 2.6 | 6.1 | 0.00 | 0.00 | 0.00 | 60 | 1009.7 |
| 20260506023043 | 68 | 205 | 2.6 | 5.2 | 0.00 | 0.00 | 0.00 | 58 | 1010.0 |
| 20260506021542 | 68 | 207 | 2.6 | 6.1 | 0.00 | 0.00 | 0.00 | 57 | 1010.0 |
| 20260506020042 | 69 | 201 | 2.6 | 5.2 | 0.00 | 0.00 | 0.00 | 56 | 1010.0 |
| 20260506014541 | 69 | 169 | 1.7 | 7.0 | 0.00 | 0.00 | 0.00 | 56 | 1010.1 |
| 20260506013045 | 69 | 173 | 2.6 | 7.0 | 0.00 | 0.00 | 0.00 | 55 | 1010.0 |
| 20260506011540 | 70 | 205 | 2.6 | 4.3 | 0.00 | 0.00 | 0.00 | 53 | 1009.8 |
| 20260506010039 | 70 | 210 | 1.7 | 5.2 | 0.00 | 0.00 | 0.00 | 51 | 1009.8 |
| 20260506004605 | 70 | 198 | 2.6 | 5.2 | 0.00 | 0.00 | 0.00 | 49 | 1009.8 |
| 20260506003038 | 71 | 214 | 1.7 | 4.3 | 0.00 | 0.00 | 0.00 | 48 | 1009.7 |
| 20260506001537 | 71 | 212 | 1.7 | 5.2 | 0.00 | 0.00 | 0.00 | 47 | 1009.5 |
| 20260506000038 | 72 | 208 | 2.6 | 7.0 | 0.00 | 0.00 | 0.00 | 46 | 1009.1 |
| 20260505234604 | 72 | 191 | 1.7 | 5.2 | 0.00 | 0.00 | 0.00 | 46 | 1009.1 |
| 20260505233035 | 72 | 222 | 1.7 | 5.2 | 0.00 | 0.00 | 0.00 | 45 | 1009.1 |
| 20260505231536 | 73 | 235 | 1.7 | 5.2 | 0.00 | 0.00 | 0.00 | 43 | 1009.0 |
| 20260505230035 | 73 | 210 | 1.7 | 6.1 | 0.00 | 0.00 | 0.00 | 43 | 1008.8 |
| 20260505224534 | 73 | 186 | 3.5 | 7.0 | 0.00 | 0.00 | 0.00 | 42 | 1008.7 |
| 20260505223035 | 74 | 251 | 4.3 | 8.7 | 0.00 | 0.00 | 0.00 | 41 | 1008.7 |
| 20260505221531 | 75 | 224 | 2.6 | 7.8 | 0.00 | 0.00 | 0.00 | 41 | 1008.6 |
| 20260505220030 | 76 | 217 | 4.3 | 8.7 | 0.00 | 0.00 | 0.00 | 39 | 1008.5 |
| 20260505214537 | 77 | 224 | 3.5 | 7.8 | 0.00 | 0.00 | 0.00 | 38 | 1008.3 |
| 20260505213027 | 77 | 232 | 3.5 | 7.8 | 0.00 | 0.00 | 0.00 | 39 | 1008.4 |
| 20260505211526 | 76 | 200 | 5.2 | 10.4 | 0.00 | 0.00 | 0.00 | 38 | 1008.2 |
| 20260505210028 | 78 | 203 | 4.3 | 8.7 | 0.00 | 0.00 | 0.00 | 36 | 1008.0 |
| 20260505204526 | 79 | 264 | 1.7 | 6.1 | 0.00 | 0.00 | 0.00 | 37 | 1008.1 |
| 20260505203024 | 78 | 250 | 5.2 | 10.4 | 0.00 | 0.00 | 0.00 | 38 | 1008.3 |
| 20260505201526 | 79 | 229 | 3.5 | 7.8 | 0.00 | 0.00 | 0.00 | 38 | 1008.2 |
| 20260505200024 | 78 | 202 | 4.3 | 7.8 | 0.00 | 0.00 | 0.00 | 38 | 1008.3 |
| 20260505194517 | 78 | 224 | 2.6 | 7.0 | 0.00 | 0.00 | 0.00 | 39 | 1008.2 |
| 20260505193017 | 78 | 205 | 4.3 | 7.8 | 0.00 | 0.00 | 0.00 | 39 | 1008.4 |
| 20260505191514 | 78 | 240 | 3.5 | 8.7 | 0.00 | 0.00 | 0.00 | 38 | 1008.5 |
| 20260505190013 | 78 | 230 | 5.2 | 8.7 | 0.00 | 0.00 | 0.00 | 39 | 1008.6 |
| 20260505184520 | 78 | 224 | 2.6 | 7.0 | 0.00 | 0.00 | 0.00 | 42 | 1008.8 |
| 20260505183020 | 77 | 225 | 3.5 | 8.7 | 0.00 | 0.00 | 0.00 | 43 | 1009.0 |
| 20260505181504 | 77 | 169 | 3.5 | 7.0 | 0.00 | 0.00 | 0.00 | 44 | 1009.6 |
| 20260505180004 | 78 | 275 | 1.7 | 7.0 | 0.00 | 0.00 | 0.00 | 45 | 1009.6 |
| 20260505174600 | 78 | 214 | 1.7 | 7.0 | 0.00 | 0.00 | 0.00 | 45 | 1009.7 |
| 20260505173056 | 77 | 240 | 2.6 | 6.1 | 0.00 | 0.00 | 0.00 | 46 | 1009.7 |
| 20260505171555 | 77 | 239 | 2.6 | 6.1 | 0.00 | 0.00 | 0.00 | 46 | 1009.8 |
| 20260505170053 | 77 | 166 | 2.6 | 5.2 | 0.00 | 0.00 | 0.00 | 47 | 1010.0 |
| 20260505164557 | 76 | 231 | 0.9 | 6.1 | 0.00 | 0.00 | 0.00 | 50 | 1010.1 |
| 20260505163047 | 76 | 214 | 1.7 | 4.3 | 0.00 | 0.00 | 0.00 | 50 | 1010.2 |
| 20260505161545 | 75 | 288 | 1.7 | 5.2 | 0.00 | 0.00 | 0.00 | 51 | 1010.5 |
| 20260505153045 | 73 | 238 | 3.5 | 7.0 | 0.00 | 0.00 | 0.00 | 53 | 1011.3 |
| 20260505151544 | 72 | 205 | 1.7 | 4.3 | 0.00 | 0.00 | 0.00 | 55 | 1011.1 |
| 20260505124509 | 63 | 250 | 1.7 | 4.3 | 0.00 | 0.00 | 0.00 | 69 | 1011.2 |
| 20260505123006 | 62 | 228 | 0.0 | 2.6 | 0.00 | 0.00 | 0.00 | 73 | 1011.0 |
| 20260505121504 | 61 | 217 | 0.9 | 3.5 | 0.00 | 0.00 | 0.00 | 73 | 1011.0 |
| 20260505120005 | 61 | 210 | 0.9 | 3.5 | 0.00 | 0.00 | 0.00 | 73 | 1011.2 |
| 20260505114502 | 61 | 220 | 0.9 | 2.6 | 0.00 | 0.00 | 0.00 | 73 | 1011.3 |
| 20260505113058 | 59 | 218 | 0.9 | 2.6 | 0.00 | 0.00 | 0.00 | 74 | 1011.3 |
| 20260505111557 | 58 | 201 | 0.9 | 1.7 | 0.00 | 0.00 | 0.00 | 77 | 1011.1 |
| 20260505110106 | 59 | 210 | 0.0 | 0.9 | 0.00 | 0.00 | 0.00 | 75 | 1011.0 |